PBO Station Position Time Series. Reference Frame : NAM14
Format Version,1.1.1
4-character ID,P395
Station name,Rose_LodgeOR2006
Begin Date, 2006-01-25
End Date, 2023-06-26
Release Date, 2023-06-27
Reference position, 45.0222793096 North Latitude, -123.8575271404 East Longitude, 53.04286 meters elevation,
Date, North (mm), East (mm), Vertical (mm), North Std. Deviation (mm), East Std. Deviation (mm),              Vertical Std. Deviation (mm), Quality,
2006-01-25,0.00, 0.00, 0.00, 2.27, 1.57, 7.31, repro,
2006-01-26,-0.64, -1.04, -11.58, 2.35, 1.62, 7.42, repro,
2006-01-27,0.83, -1.06, -5.16, 2.32, 1.57, 7.38, repro,
2006-01-28,-1.48, -0.89, 4.50, 2.33, 1.58, 7.39, repro,
2006-01-29,-0.56, 0.09, -3.42, 2.30, 1.57, 7.31, repro,
2006-01-30,-3.41, -0.28, -1.31, 2.31, 1.58, 7.38, repro,
2006-01-31,-0.84, -0.52, -0.17, 2.27, 1.56, 7.24, repro,
2006-02-01,-1.86, -0.58, 1.94, 2.36, 1.63, 7.57, repro,
2006-02-02,-1.66, -0.72, -0.17, 2.33, 1.58, 7.42, repro,
2006-02-03,-1.22, -0.23, 3.81, 2.31, 1.57, 7.39, repro,
2006-02-04,-3.11, 0.43, -2.39, 2.31, 1.58, 7.41, repro,
2006-02-05,-0.37, 1.62, -5.22, 2.29, 1.55, 7.30, repro,
2006-02-06,-2.43, 1.08, -3.68, 2.34, 1.59, 7.49, repro,
2006-02-07,-2.13, -0.42, -1.34, 2.32, 1.56, 7.42, repro,
2006-02-08,-1.58, 0.56, -7.83, 2.29, 1.56, 7.34, repro,
2006-02-09,1.98, 0.89, -6.65, 2.38, 1.58, 7.48, repro,
2006-02-10,-0.59, -1.65, -1.36, 2.45, 1.60, 7.57, repro,
2006-02-11,-1.66, 0.12, -4.51, 2.29, 1.56, 7.33, repro,
2006-02-12,-0.18, 1.29, -6.91, 2.38, 1.60, 7.55, repro,
2006-02-13,-0.87, 0.05, -10.20, 2.33, 1.56, 7.47, repro,
2006-02-14,-1.30, 1.05, -7.40, 2.31, 1.56, 7.40, repro,
2006-02-15,-1.01, 0.75, -3.92, 2.29, 1.54, 7.32, repro,
2006-02-16,0.49, 0.99, -4.51, 2.30, 1.53, 7.29, repro,
2006-02-17,1.11, -1.46, -2.49, 2.34, 1.55, 7.39, repro,
2006-02-18,0.29, -1.28, -0.65, 2.33, 1.57, 7.33, repro,
2006-02-19,-0.62, 0.48, -3.90, 2.34, 1.56, 7.38, repro,
2006-02-20,-0.70, 0.25, -0.31, 2.31, 1.56, 7.37, repro,
2006-02-21,-1.33, 1.14, -2.51, 2.33, 1.56, 7.40, repro,
2006-02-22,-0.37, -0.09, -6.36, 2.32, 1.55, 7.34, repro,
2006-02-23,-0.57, 0.07, -6.77, 2.37, 1.62, 7.58, repro,
2006-02-24,-0.71, -0.05, -11.09, 2.35, 1.61, 7.61, repro,
2006-02-25,-1.09, 1.86, -2.33, 2.31, 1.56, 7.37, repro,
2006-02-26,-1.35, -0.29, -4.17, 2.32, 1.57, 7.46, repro,
2006-02-27,-2.93, 0.92, 6.37, 2.32, 1.57, 7.48, repro,
2006-02-28,-2.49, -0.44, 4.96, 2.37, 1.57, 7.46, repro,
2006-03-01,-4.67, 1.55, 1.49, 2.43, 1.64, 7.64, repro,
2006-03-02,-2.55, 1.16, -8.41, 2.33, 1.57, 7.44, repro,
2006-03-03,-2.42, 0.39, -0.27, 2.37, 1.58, 7.57, repro,
2006-03-04,-2.90, -0.89, -3.16, 2.31, 1.57, 7.40, repro,
2006-03-05,-4.24, 0.76, -4.28, 2.30, 1.57, 7.36, repro,
2006-03-06,-2.75, -0.15, -8.74, 2.34, 1.62, 7.48, repro,
2006-03-07,-1.15, -0.91, -4.49, 2.32, 1.58, 7.45, repro,
2006-03-08,-0.62, 0.25, -8.32, 2.31, 1.58, 7.41, repro,
2006-03-09,0.66, -0.10, -2.37, 2.32, 1.58, 7.47, repro,
2006-03-10,-0.11, -0.95, -8.98, 2.30, 1.56, 7.37, repro,
2006-03-11,-0.03, 0.23, 5.17, 2.34, 1.58, 7.45, repro,
2006-03-12,-0.67, -0.14, -0.87, 2.35, 1.58, 7.40, repro,
2006-03-13,-1.86, -0.10, -1.44, 2.35, 1.58, 7.45, repro,
2006-03-14,-2.25, 0.68, 3.65, 2.36, 1.60, 7.52, repro,
2006-03-15,-2.39, 0.96, -2.99, 2.36, 1.59, 7.50, repro,
2006-03-16,-5.21, -0.86, -2.94, 2.43, 1.62, 7.72, repro,
2006-03-17,-1.74, 0.37, -9.85, 2.43, 1.63, 7.85, repro,
2006-03-18,2.01, 0.04, -12.30, 2.36, 1.61, 7.59, repro,
2006-03-19,-0.80, -0.07, -7.48, 2.37, 1.61, 7.64, repro,
2006-03-20,0.17, -0.94, 0.34, 2.34, 1.60, 7.51, repro,
2006-03-21,1.04, 0.04, -3.74, 2.34, 1.59, 7.49, repro,
2006-03-22,-5.05, 0.32, -6.81, 2.33, 1.61, 7.52, repro,
2006-03-23,-4.71, 0.44, -12.33, 2.39, 1.63, 7.60, repro,
2006-03-24,-3.62, -0.50, -2.59, 2.43, 1.64, 7.72, repro,
2006-03-25,-0.41, 0.08, 2.72, 2.42, 1.63, 7.60, repro,
2006-03-26,-1.84, 0.57, 3.75, 2.39, 1.62, 7.53, repro,
2006-03-27,-1.93, 0.17, -3.51, 2.40, 1.62, 7.52, repro,
2006-03-28,-3.31, -0.77, 6.24, 2.30, 1.61, 7.41, repro,
2006-03-29,-1.13, -0.25, 0.74, 2.27, 1.58, 7.33, repro,
2006-03-30,-1.17, -0.06, 1.91, 2.31, 1.66, 7.55, repro,
2006-03-31,-1.63, -0.65, 5.56, 2.27, 1.60, 7.38, repro,
2006-04-01,-2.05, -0.76, 1.91, 2.25, 1.58, 7.25, repro,
2006-04-02,-3.28, -0.84, -7.71, 2.23, 1.58, 7.30, repro,
2006-04-03,-4.72, -1.73, 1.00, 2.24, 1.59, 7.31, repro,
2006-04-04,-3.17, -0.69, 5.24, 2.27, 1.60, 7.39, repro,
2006-04-05,-0.08, -0.43, 2.78, 2.28, 1.60, 7.38, repro,
2006-04-06,-0.41, -1.44, 1.93, 2.32, 1.62, 7.57, repro,
2006-04-07,-2.13, -0.95, -0.24, 2.38, 1.63, 7.70, repro,
2006-04-08,-2.02, -1.35, 1.11, 2.32, 1.59, 7.44, repro,
2006-04-09,-1.47, 0.33, 2.48, 2.27, 1.58, 7.33, repro,
2006-04-10,-1.24, 0.18, 1.10, 2.27, 1.60, 7.46, repro,
2006-04-11,-1.02, -0.87, 4.32, 2.32, 1.63, 7.63, repro,
2006-04-12,-1.67, -0.07, 1.20, 2.33, 1.62, 7.64, repro,
2006-04-13,-2.24, -0.28, 1.45, 2.24, 1.57, 7.30, repro,
2006-04-14,-1.17, -0.18, 0.44, 2.24, 1.58, 7.33, repro,
2006-04-15,-0.88, -1.26, 2.96, 2.34, 1.65, 7.69, repro,
2006-04-16,-3.11, 0.34, 2.37, 2.28, 1.60, 7.45, repro,
2006-04-17,-3.51, 0.51, 5.87, 2.27, 1.58, 7.37, repro,
2006-04-18,-1.38, -0.65, -2.47, 2.25, 1.57, 7.35, repro,
2006-04-19,-0.85, 0.82, -7.77, 2.23, 1.58, 7.36, repro,
2006-04-20,0.44, -0.82, 3.85, 2.34, 1.67, 7.79, repro,
2006-04-21,1.69, 0.38, -6.89, 2.27, 1.59, 7.40, repro,
2006-04-22,0.56, 0.57, -4.97, 2.28, 1.58, 7.37, repro,
2006-04-23,0.03, -0.09, 1.10, 2.34, 1.66, 7.73, repro,
2006-04-24,1.03, -0.23, 5.85, 2.28, 1.61, 7.46, repro,
2006-04-25,-0.99, -0.63, 2.57, 2.28, 1.62, 7.54, repro,
2006-04-26,0.07, 0.01, -0.94, 2.33, 1.63, 7.66, repro,
2006-04-27,0.39, 1.19, -2.31, 2.40, 1.64, 7.67, repro,
2006-04-28,1.39, 1.51, -4.53, 2.32, 1.59, 7.43, repro,
2006-04-29,-0.44, -0.66, -0.51, 2.30, 1.64, 7.56, repro,
2006-04-30,-0.04, -0.77, -2.82, 2.30, 1.62, 7.52, repro,
2006-05-01,-0.13, -0.53, 3.32, 2.27, 1.60, 7.52, repro,
2006-05-02,1.98, 1.30, -7.88, 2.28, 1.58, 7.46, repro,
2006-05-03,0.49, 0.72, -0.43, 2.31, 1.61, 7.52, repro,
2006-05-04,-0.30, -0.87, 3.80, 2.25, 1.57, 7.36, repro,
2006-05-05,-1.03, -0.39, 0.60, 2.30, 1.62, 7.55, repro,
2006-05-06,0.12, -1.42, 0.60, 2.24, 1.58, 7.36, repro,
2006-05-07,-0.72, 0.59, -0.76, 2.26, 1.59, 7.50, repro,
2006-05-08,-0.78, -0.30, 1.77, 2.27, 1.57, 7.38, repro,
2006-05-09,-0.53, 0.62, 0.75, 2.37, 1.65, 7.69, repro,
2006-05-10,0.23, -0.10, -1.92, 2.30, 1.61, 7.59, repro,
2006-05-11,-1.00, -1.36, 0.57, 2.25, 1.58, 7.44, repro,
2006-05-12,-0.90, -0.59, 1.44, 2.29, 1.63, 7.67, repro,
2006-05-13,0.57, -0.71, -3.32, 2.29, 1.58, 7.49, repro,
2006-05-14,-0.99, 0.55, -3.95, 2.27, 1.57, 7.41, repro,
2006-05-15,0.12, 0.15, -1.47, 2.26, 1.58, 7.42, repro,
2006-05-16,0.17, -1.11, 2.28, 2.26, 1.62, 7.58, repro,
2006-05-17,-1.63, -0.59, 0.94, 2.27, 1.62, 7.59, repro,
2006-05-18,-2.20, 0.04, 0.52, 2.27, 1.59, 7.43, repro,
2006-05-19,-0.60, 0.23, 3.49, 2.35, 1.61, 7.56, repro,
2006-05-20,-1.47, -1.60, 3.99, 2.33, 1.61, 7.52, repro,
2006-05-21,-1.24, 0.03, 2.60, 2.34, 1.61, 7.55, repro,
2006-05-22,-3.53, -0.89, 9.40, 2.36, 1.67, 7.75, repro,
2006-05-23,-3.97, 1.04, -6.78, 2.36, 1.62, 7.67, repro,
2006-05-24,-2.23, 2.87, -5.89, 2.36, 1.63, 7.67, repro,
2006-05-25,-0.72, 0.55, 5.14, 2.46, 1.72, 7.99, repro,
2006-05-26,-1.12, -1.14, 4.43, 2.40, 1.66, 7.81, repro,
2006-05-27,-0.92, -1.03, -0.38, 2.32, 1.61, 7.55, repro,
2006-05-28,0.26, -0.18, 1.46, 2.32, 1.63, 7.59, repro,
2006-05-29,-0.41, 0.61, -3.47, 2.34, 1.61, 7.63, repro,
2006-05-30,-2.16, 0.48, -0.52, 2.41, 1.64, 7.77, repro,
2006-05-31,1.35, 0.54, -5.92, 2.38, 1.64, 7.71, repro,
2006-06-01,-2.51, -0.71, 3.67, 2.38, 1.64, 7.68, repro,
2006-06-02,-1.18, -0.13, 5.36, 2.46, 1.70, 8.03, repro,
2006-06-03,-1.08, 1.08, 5.10, 2.46, 1.70, 8.06, repro,
2006-06-04,0.17, 0.03, 9.54, 2.45, 1.63, 7.76, repro,
2006-06-05,-1.91, 0.57, 4.20, 2.40, 1.63, 7.70, repro,
2006-06-06,-2.01, 0.14, 6.72, 2.39, 1.64, 7.76, repro,
2006-06-07,-1.61, 0.04, -4.63, 2.39, 1.65, 7.75, repro,
2006-06-08,-0.63, -1.39, 0.85, 2.33, 1.62, 7.59, repro,
2006-06-09,0.06, 0.73, -0.21, 2.37, 1.62, 7.64, repro,
2006-06-10,-1.19, -0.18, 5.24, 2.33, 1.60, 7.45, repro,
2006-06-11,-1.79, 0.32, 1.82, 2.34, 1.62, 7.61, repro,
2006-06-12,-1.78, -1.03, -0.93, 2.34, 1.62, 7.61, repro,
2006-06-13,0.32, -0.03, 1.29, 2.39, 1.66, 7.78, repro,
2006-06-14,-1.30, -0.91, 2.95, 2.36, 1.65, 7.74, repro,
2006-06-15,-1.24, -0.77, 7.46, 2.33, 1.60, 7.52, repro,
2006-06-16,-1.82, -1.79, 10.29, 2.39, 1.63, 7.74, repro,
2006-06-17,-0.06, 0.58, 2.65, 2.32, 1.63, 7.61, repro,
2006-06-18,-1.45, -0.85, 0.08, 2.37, 1.67, 7.83, repro,
2006-06-19,-1.42, -1.35, -3.79, 2.44, 1.69, 8.03, repro,
2006-06-20,-1.06, 0.60, 1.37, 2.37, 1.65, 7.73, repro,
2006-06-21,-0.33, 0.45, 2.93, 2.38, 1.66, 7.82, repro,
2006-06-22,-0.46, 0.79, 2.30, 2.36, 1.66, 7.78, repro,
2006-06-23,0.58, 1.16, -9.04, 2.38, 1.67, 7.88, repro,
2006-06-24,-1.72, 1.51, 1.69, 2.38, 1.67, 7.83, repro,
2006-06-25,-0.92, 1.92, 1.70, 2.36, 1.66, 7.77, repro,
2006-06-26,-1.04, 1.41, 2.46, 2.36, 1.66, 7.77, repro,
2006-06-27,-0.17, -0.88, 11.90, 2.42, 1.73, 7.95, repro,
2006-06-28,-1.12, -2.25, 10.75, 2.37, 1.67, 7.86, repro,
2006-06-29,-0.93, -0.09, 0.21, 2.30, 1.63, 7.71, repro,
2006-06-30,-2.14, 0.39, 3.79, 2.33, 1.64, 7.75, repro,
2006-07-01,-1.72, -0.91, 10.98, 2.32, 1.62, 7.70, repro,
2006-07-02,-0.75, 0.27, 3.40, 2.33, 1.66, 7.78, repro,
2006-07-03,0.17, -0.20, 1.49, 2.32, 1.62, 7.69, repro,
2006-07-04,-1.74, -0.15, -1.29, 2.33, 1.63, 7.75, repro,
2006-07-05,-1.13, 0.26, 1.18, 2.39, 1.71, 7.98, repro,
2006-07-06,0.13, -0.04, -8.60, 2.31, 1.62, 7.70, repro,
2006-07-07,0.28, 0.52, -1.06, 2.30, 1.62, 7.65, repro,
2006-07-08,-0.07, 0.36, 4.53, 2.31, 1.62, 7.66, repro,
2006-07-09,-0.87, 1.20, 5.20, 2.32, 1.62, 7.68, repro,
2006-07-10,-2.35, -0.32, -0.13, 2.34, 1.64, 7.82, repro,
2006-07-11,-1.01, -0.69, 7.13, 2.31, 1.65, 7.77, repro,
2006-07-12,-0.97, 1.16, 1.11, 2.34, 1.65, 7.87, repro,
2006-07-13,-1.35, -0.09, 11.10, 2.32, 1.62, 7.70, repro,
2006-07-14,-0.74, 0.54, 8.12, 2.32, 1.63, 7.75, repro,
2006-07-15,-0.08, 0.45, 2.09, 2.30, 1.63, 7.68, repro,
2006-07-16,-1.27, 0.36, 5.33, 2.31, 1.63, 7.72, repro,
2006-07-17,0.69, -0.47, 1.35, 2.35, 1.66, 7.86, repro,
2006-07-18,-0.27, 0.67, 7.70, 2.23, 1.57, 7.37, repro,
2006-07-19,-1.86, -0.57, 4.88, 2.25, 1.58, 7.44, repro,
2006-07-20,-0.97, 0.35, 1.82, 2.24, 1.58, 7.40, repro,
2006-07-21,1.26, 0.74, -0.85, 2.26, 1.59, 7.41, repro,
2006-07-22,-0.41, 0.17, 5.71, 2.27, 1.60, 7.50, repro,
2006-07-23,1.04, -0.10, 4.68, 2.25, 1.58, 7.42, repro,
2006-07-24,-0.02, 1.27, 9.91, 2.27, 1.59, 7.47, repro,
2006-07-25,0.60, -0.53, 8.59, 2.24, 1.59, 7.43, repro,
2006-07-26,0.25, -0.85, 8.52, 2.25, 1.60, 7.45, repro,
2006-07-27,-0.28, 0.62, 9.98, 2.29, 1.63, 7.64, repro,
2006-07-28,-0.89, -0.14, 9.81, 2.27, 1.59, 7.51, repro,
2006-07-29,0.60, -0.92, 0.83, 2.25, 1.58, 7.42, repro,
2006-07-30,-0.40, -1.25, 8.13, 2.28, 1.64, 7.61, repro,
2006-07-31,-0.49, -0.47, 12.03, 2.25, 1.59, 7.49, repro,
2006-08-01,-0.10, -0.48, 7.45, 2.29, 1.65, 7.64, repro,
2006-08-02,-0.85, 0.03, 5.65, 2.29, 1.64, 7.74, repro,
2006-08-03,0.17, -0.13, 7.69, 2.33, 1.69, 7.88, repro,
2006-08-04,-1.84, -0.50, 8.33, 2.38, 1.68, 7.91, repro,
2006-08-05,-1.11, -0.25, 8.04, 2.36, 1.69, 7.97, repro,
2006-08-06,0.10, 0.00, 8.13, 2.30, 1.65, 7.80, repro,
2006-08-07,0.21, -0.56, 12.30, 2.30, 1.63, 7.71, repro,
2006-08-08,-1.29, 0.72, 6.70, 2.30, 1.65, 7.68, repro,
2006-08-09,-1.04, 1.09, 10.39, 2.25, 1.59, 7.46, repro,
2006-08-10,-1.14, -0.66, 7.47, 2.35, 1.63, 7.82, repro,
2006-08-11,0.02, -0.17, 6.01, 2.27, 1.60, 7.50, repro,
2006-08-12,-1.22, -0.26, 9.52, 2.25, 1.59, 7.46, repro,
2006-08-13,-1.56, 0.01, 11.90, 2.25, 1.59, 7.46, repro,
2006-08-14,-0.59, -1.16, 11.18, 2.29, 1.65, 7.65, repro,
2006-08-15,0.28, -0.78, 18.91, 2.36, 1.62, 7.64, repro,
2006-08-16,-0.75, -0.86, 12.68, 2.27, 1.60, 7.55, repro,
2006-08-17,-1.17, 0.49, 8.03, 2.24, 1.60, 7.45, repro,
2006-08-18,-0.66, 0.50, 5.63, 2.27, 1.63, 7.58, repro,
2006-08-19,-0.53, -0.33, 5.49, 2.24, 1.59, 7.43, repro,
2006-08-20,-1.66, -0.60, 12.81, 2.24, 1.59, 7.40, repro,
2006-08-21,-0.15, 0.10, 9.51, 2.30, 1.62, 7.55, repro,
2006-08-22,-0.36, 0.25, 10.12, 2.33, 1.67, 7.82, repro,
2006-08-23,-2.00, 0.86, 11.35, 2.25, 1.61, 7.52, repro,
2006-08-24,-1.31, 0.75, 13.11, 2.25, 1.61, 7.53, repro,
2006-08-25,-0.13, 0.30, 11.27, 2.28, 1.66, 7.74, repro,
2006-08-26,-0.65, -0.16, 9.89, 2.33, 1.68, 7.87, repro,
2006-08-27,-0.73, -0.73, 4.33, 2.37, 1.71, 8.03, repro,
2006-08-28,-0.42, 0.03, 8.43, 2.34, 1.71, 8.00, repro,
2006-08-29,-0.23, -1.34, 14.39, 2.35, 1.70, 7.94, repro,
2006-08-30,-0.24, 0.18, 11.70, 2.33, 1.71, 7.97, repro,
2006-08-31,-0.44, 1.13, 5.48, 2.35, 1.71, 7.95, repro,
2006-09-01,1.45, -0.10, 9.31, 2.35, 1.70, 7.97, repro,
2006-09-02,0.40, -1.03, 5.03, 2.34, 1.71, 7.97, repro,
2006-09-03,-0.48, -1.03, 11.98, 2.35, 1.72, 8.02, repro,
2006-09-04,0.49, -0.91, 1.49, 2.41, 1.74, 8.14, repro,
2006-09-05,0.04, -0.58, 11.88, 2.42, 1.72, 8.05, repro,
2006-09-06,-0.53, -1.01, 8.82, 2.35, 1.70, 7.97, repro,
2006-09-07,-1.53, 0.14, 11.41, 2.38, 1.74, 8.17, repro,
2006-09-08,-0.31, -1.10, 15.54, 2.44, 1.79, 8.43, repro,
2006-09-09,-0.72, -0.94, 12.47, 2.31, 1.68, 7.79, repro,
2006-09-10,-0.46, -1.24, 8.07, 2.30, 1.65, 7.69, repro,
2006-09-11,-1.04, -0.42, 13.95, 2.29, 1.65, 7.68, repro,
2006-09-12,-0.97, -0.63, 9.30, 2.31, 1.66, 7.73, repro,
2006-09-13,0.10, -0.93, 12.73, 2.29, 1.67, 7.74, repro,
2006-09-14,0.73, -1.94, 16.66, 2.35, 1.69, 7.76, repro,
2006-09-15,-0.76, -2.74, 22.85, 2.33, 1.64, 7.65, repro,
2006-09-16,-0.30, -0.56, 14.10, 2.26, 1.61, 7.50, repro,
2006-09-17,0.25, -0.33, 16.44, 2.26, 1.60, 7.53, repro,
2006-09-18,-1.87, 0.10, 24.55, 2.34, 1.67, 7.80, repro,
2006-09-19,-2.24, 0.30, 16.97, 2.25, 1.61, 7.49, repro,
2006-09-20,-1.42, -0.78, 9.63, 2.26, 1.61, 7.51, repro,
2006-09-21,1.33, -1.76, 13.87, 2.32, 1.67, 7.75, repro,
2006-09-22,0.06, 0.07, 12.84, 2.34, 1.70, 7.82, repro,
2006-09-23,0.50, 0.91, 5.24, 2.31, 1.65, 7.64, repro,
2006-09-24,0.62, 0.88, 5.04, 2.37, 1.68, 7.73, repro,
2006-09-25,-0.92, -1.16, 11.59, 2.29, 1.64, 7.61, repro,
2006-09-26,-1.14, -1.49, 10.81, 2.30, 1.63, 7.62, repro,
2006-09-27,-0.70, 0.21, 9.13, 2.34, 1.65, 7.70, repro,
2006-09-28,0.11, -0.90, 7.64, 2.28, 1.65, 7.62, repro,
2006-09-29,-1.21, -1.06, 17.27, 2.26, 1.63, 7.54, repro,
2006-09-30,-2.58, -0.99, 17.65, 2.42, 1.77, 8.36, repro,
2006-10-01,-1.64, -0.80, 17.43, 2.31, 1.65, 7.73, repro,
2006-10-02,-2.33, -0.67, 11.28, 2.35, 1.72, 7.89, repro,
2006-10-03,-1.36, 1.68, 9.15, 2.40, 1.74, 8.02, repro,
2006-10-04,-1.12, -1.39, 18.69, 2.30, 1.63, 7.59, repro,
2006-10-05,-1.19, -0.75, 17.31, 2.30, 1.65, 7.68, repro,
2006-10-06,-1.08, -0.33, 10.45, 2.29, 1.64, 7.63, repro,
2006-10-07,-2.73, -0.06, 2.84, 2.45, 1.77, 8.24, repro,
2006-10-08,-1.81, -0.83, 3.72, 2.33, 1.68, 7.78, repro,
2006-10-09,1.81, -1.34, 15.97, 2.34, 1.67, 7.73, repro,
2006-10-10,1.37, -0.52, 13.28, 2.33, 1.67, 7.84, repro,
2006-10-11,-0.90, -0.53, 5.62, 2.34, 1.67, 7.91, repro,
2006-10-12,-1.87, -0.53, 13.32, 2.35, 1.67, 7.85, repro,
2006-10-13,-1.63, -0.77, 14.15, 2.25, 1.62, 7.53, repro,
2006-10-14,-2.05, 0.46, 15.86, 2.30, 1.66, 7.64, repro,
2006-10-15,-3.93, -2.35, 33.17, 2.30, 1.67, 7.75, repro,
2006-10-16,-2.06, -1.28, 32.84, 2.26, 1.63, 7.56, repro,
2006-10-17,-0.28, 0.09, 16.51, 2.29, 1.69, 7.89, repro,
2006-10-18,-2.12, -0.27, 14.03, 2.22, 1.61, 7.44, repro,
2006-10-19,0.06, -0.25, 9.55, 2.28, 1.65, 7.77, repro,
2006-10-20,-1.04, 0.88, 10.46, 2.61, 1.88, 9.08, repro,
2006-10-21,-1.52, 2.28, 6.52, 2.51, 1.79, 8.41, repro,
2006-10-22,-1.50, 0.33, 8.61, 2.28, 1.69, 7.82, repro,
2006-10-23,-2.18, -0.17, 7.65, 2.26, 1.66, 7.65, repro,
2006-10-24,-1.16, -1.65, 6.75, 2.48, 1.74, 8.33, repro,
2006-10-25,-1.08, -0.01, 11.91, 2.38, 1.71, 7.94, repro,
2006-10-26,-2.00, -0.28, 13.94, 2.31, 1.70, 7.85, repro,
2006-10-27,0.32, 0.24, 1.13, 2.23, 1.64, 7.53, repro,
2006-10-28,-1.46, 0.90, 3.10, 2.39, 1.70, 8.01, repro,
2006-10-29,-2.28, -0.22, 14.50, 2.26, 1.64, 7.71, repro,
2006-10-30,-1.44, -0.13, 10.29, 2.22, 1.60, 7.43, repro,
2006-10-31,-0.25, 1.80, 11.35, 2.26, 1.64, 7.64, repro,
2006-11-01,-0.85, -0.85, 10.53, 2.28, 1.67, 7.75, repro,
2006-11-02,-2.16, -1.50, 13.40, 2.27, 1.65, 7.73, repro,
2006-11-03,-3.71, -1.40, -0.04, 2.28, 1.66, 7.73, repro,
2006-11-04,-1.86, -0.02, -3.45, 2.36, 1.70, 7.88, repro,
2006-11-05,-1.88, -0.16, 12.41, 2.35, 1.68, 7.88, repro,
2006-11-06,-3.06, 1.30, 7.78, 2.27, 1.64, 7.70, repro,
2006-11-07,-1.49, 0.48, 3.68, 2.38, 1.73, 7.88, repro,
2006-11-08,0.70, -0.59, 5.55, 2.39, 1.75, 7.99, repro,
2006-11-09,-0.08, -0.13, 5.07, 2.41, 1.70, 7.89, repro,
2006-11-10,-3.64, 0.02, 12.72, 2.32, 1.64, 7.67, repro,
2006-11-11,-0.09, 1.40, 8.93, 2.39, 1.70, 7.92, repro,
2006-11-12,-1.10, 0.97, -3.28, 2.38, 1.70, 7.81, repro,
2006-11-13,-1.13, -1.52, 12.39, 2.36, 1.71, 7.82, repro,
2006-11-14,-1.01, 0.21, 13.99, 2.24, 1.60, 7.46, repro,
2006-11-15,-2.74, 1.51, 14.49, 2.22, 1.62, 7.52, repro,
2006-11-16,-2.67, -0.20, 9.05, 2.22, 1.61, 7.48, repro,
2006-11-17,-0.93, 1.44, 0.59, 2.19, 1.61, 7.39, repro,
2006-11-18,-1.22, 1.75, -0.89, 2.20, 1.60, 7.42, repro,
2006-11-19,-1.46, -0.49, -5.45, 2.20, 1.62, 7.51, repro,
2006-11-20,-2.91, -0.68, 7.97, 2.19, 1.60, 7.38, repro,
2006-11-21,-3.60, 0.82, 4.08, 2.21, 1.62, 7.51, repro,
2006-11-22,-1.47, -1.20, 0.40, 2.21, 1.62, 7.47, repro,
2006-11-23,-3.04, 0.87, -3.35, 2.25, 1.65, 7.68, repro,
2006-11-24,-0.46, -0.05, -5.03, 2.23, 1.65, 7.65, repro,
2006-11-25,0.38, 0.06, 1.30, 2.23, 1.62, 7.48, repro,
2006-11-26,-1.31, 0.08, 0.43, 2.30, 1.68, 7.79, repro,
2006-11-27,-1.84, -1.38, -5.44, 2.28, 1.65, 7.68, repro,
2006-11-28,-2.46, 0.72, -2.26, 2.21, 1.62, 7.50, repro,
2006-11-29,-1.31, 1.54, 3.69, 2.20, 1.61, 7.48, repro,
2006-11-30,0.91, 1.36, 0.60, 2.22, 1.62, 7.55, repro,
2006-12-01,-0.55, 1.89, -8.82, 2.21, 1.62, 7.50, repro,
2006-12-02,2.34, 2.75, -12.88, 2.19, 1.63, 7.46, repro,
2006-12-03,0.16, 2.83, -1.30, 2.26, 1.66, 7.61, repro,
2006-12-04,-0.23, 2.04, -10.39, 2.24, 1.64, 7.56, repro,
2006-12-05,-0.10, 1.21, -7.55, 2.23, 1.67, 7.57, repro,
2006-12-06,0.31, 0.28, -7.60, 2.27, 1.71, 7.75, repro,
2006-12-07,-2.39, 0.77, 4.26, 2.25, 1.69, 7.72, repro,
2006-12-08,-0.97, 1.44, -0.63, 2.25, 1.70, 7.71, repro,
2006-12-09,-3.36, 0.05, 6.53, 2.28, 1.70, 7.72, repro,
2006-12-10,-2.93, -0.75, 5.11, 2.29, 1.70, 7.75, repro,
2006-12-11,-5.44, 0.65, 3.77, 2.25, 1.66, 7.60, repro,
2006-12-12,-1.27, -0.38, -1.73, 2.27, 1.71, 7.73, repro,
2006-12-13,-2.81, 0.28, 0.16, 2.26, 1.72, 7.87, repro,
2006-12-14,-1.51, 1.17, 4.43, 2.19, 1.65, 7.47, repro,
2006-12-15,1.39, 0.52, -3.14, 2.26, 1.70, 7.69, repro,
2006-12-16,2.16, -2.03, -35.45, 2.28, 1.67, 7.62, repro,
2006-12-17,-0.25, 0.80, -1.67, 2.24, 1.73, 7.76, repro,
2006-12-18,0.65, 1.39, 0.18, 2.44, 1.91, 8.64, repro,
2006-12-19,0.37, 1.20, -2.81, 2.28, 1.79, 7.97, repro,
2006-12-20,-0.24, 0.28, -2.53, 2.35, 1.81, 8.03, repro,
2006-12-21,-2.42, -0.43, -8.46, 2.22, 1.74, 7.74, repro,
2006-12-22,-0.63, 0.31, 7.69, 2.31, 1.85, 8.19, repro,
2006-12-23,-1.26, 0.37, -5.13, 2.25, 1.73, 7.79, repro,
2006-12-24,-1.48, 1.02, -5.14, 2.20, 1.64, 7.43, repro,
2006-12-25,-1.01, 0.38, -5.83, 2.23, 1.76, 7.76, repro,
2006-12-26,-1.90, -0.55, -0.18, 2.36, 1.79, 8.07, repro,
2006-12-27,-0.22, 0.37, -10.81, 2.27, 1.74, 7.81, repro,
2006-12-28,0.36, 1.85, -2.21, 2.44, 1.95, 8.63, repro,
2006-12-29,0.81, -1.32, -19.05, 2.26, 1.69, 7.68, repro,
2006-12-30,-0.86, 1.24, -7.73, 2.33, 1.78, 8.02, repro,
2006-12-31,0.19, 1.04, -3.34, 2.42, 1.88, 8.41, repro,
2007-01-01,1.29, 1.44, -7.70, 2.35, 1.79, 8.08, repro,
2007-01-02,-5.63, 2.79, 1.21, 2.30, 1.83, 8.15, repro,
2007-01-03,-1.65, -1.54, 5.32, 2.21, 1.70, 7.64, repro,
2007-01-04,0.52, -2.44, -0.42, 2.20, 1.67, 7.55, repro,
2007-01-05,0.85, 1.22, -7.17, 2.23, 1.71, 7.69, repro,
2007-01-06,2.95, 1.49, -1.62, 2.19, 1.64, 7.44, repro,
2007-01-07,1.05, 0.12, -7.32, 2.24, 1.66, 7.49, repro,
2007-01-08,-0.05, 1.46, -10.70, 2.25, 1.68, 7.57, repro,
2007-01-09,-0.43, 0.37, -10.03, 2.28, 1.68, 7.64, repro,
2007-01-10,-0.38, 0.57, -6.07, 2.24, 1.63, 7.37, repro,
2007-01-11,0.69, -0.12, -8.75, 2.33, 1.65, 7.54, repro,
2007-01-12,1.85, 1.76, -6.40, 2.23, 1.66, 7.46, repro,
2007-01-13,-0.10, 1.30, -10.04, 2.16, 1.58, 7.19, repro,
2007-01-14,1.81, 0.86, -16.64, 2.18, 1.59, 7.24, repro,
2007-01-15,0.65, 1.22, -14.20, 2.20, 1.61, 7.35, repro,
2007-01-16,0.06, 0.02, -7.18, 2.19, 1.60, 7.24, repro,
2007-01-17,0.44, 0.31, -7.13, 2.19, 1.62, 7.32, repro,
2007-01-18,0.18, 1.12, -11.49, 2.22, 1.68, 7.51, repro,
2007-01-19,0.26, 1.77, -8.22, 2.21, 1.60, 7.41, repro,
2007-01-20,-0.74, 1.32, -4.45, 2.24, 1.63, 7.54, repro,
2007-01-21,0.13, 2.18, -3.32, 2.17, 1.59, 7.24, repro,
2007-01-22,0.50, 2.05, -5.04, 2.15, 1.57, 7.09, repro,
2007-01-23,0.45, 1.50, -10.48, 2.18, 1.63, 7.31, repro,
2007-01-24,0.13, 2.10, -11.59, 2.15, 1.58, 7.15, repro,
2007-01-25,0.64, 0.62, -11.13, 2.27, 1.66, 7.46, repro,
2007-01-26,0.16, 1.09, -8.65, 2.13, 1.57, 7.06, repro,
2007-01-27,0.21, 1.19, -8.51, 2.15, 1.57, 7.08, repro,
2007-01-28,1.49, 2.14, -6.12, 2.14, 1.56, 7.03, repro,
2007-01-29,1.11, 1.21, -9.01, 2.14, 1.57, 7.08, repro,
2007-01-30,1.82, 0.91, -3.23, 2.19, 1.63, 7.24, repro,
2007-01-31,1.24, 0.72, -4.57, 2.15, 1.58, 7.13, repro,
2007-02-01,0.70, 1.22, -1.28, 2.16, 1.62, 7.25, repro,
2007-02-02,1.76, 1.98, -3.44, 2.18, 1.59, 7.24, repro,
2007-02-03,1.08, 1.49, -4.82, 2.17, 1.59, 7.21, repro,
2007-02-04,-0.30, 1.36, -3.87, 2.16, 1.57, 7.08, repro,
2007-02-05,-1.59, 0.54, -2.72, 2.15, 1.57, 7.08, repro,
2007-02-06,-0.50, 0.04, -6.68, 2.17, 1.59, 7.15, repro,
2007-02-07,-0.73, -0.13, 0.52, 2.13, 1.58, 7.06, repro,
2007-02-08,1.86, 0.84, -4.86, 2.17, 1.63, 7.22, repro,
2007-02-09,-0.63, 0.43, -4.58, 2.17, 1.64, 7.28, repro,
2007-02-10,0.96, -1.05, 3.46, 2.15, 1.57, 7.12, repro,
2007-02-11,-2.46, 0.77, 0.56, 2.16, 1.60, 7.21, repro,
2007-02-12,1.84, 0.26, -5.78, 2.16, 1.60, 7.22, repro,
2007-02-13,0.92, 1.54, -6.49, 2.14, 1.58, 7.07, repro,
2007-02-14,0.75, 2.63, -7.08, 2.16, 1.60, 7.15, repro,
2007-02-15,2.48, 1.65, -2.36, 2.15, 1.59, 7.17, repro,
2007-02-16,0.23, 2.01, -4.01, 2.14, 1.59, 7.16, repro,
2007-02-17,0.72, 3.93, -7.97, 2.23, 1.65, 7.53, repro,
2007-02-18,1.53, 1.59, 1.11, 2.17, 1.61, 7.31, repro,
2007-02-19,-0.00, 1.09, 1.25, 2.15, 1.58, 7.12, repro,
2007-02-20,0.77, 1.34, -1.48, 2.14, 1.59, 7.12, repro,
2007-02-21,3.04, 1.13, -1.65, 2.14, 1.59, 7.17, repro,
2007-02-22,0.34, 1.62, -0.95, 2.15, 1.59, 7.18, repro,
2007-02-23,0.36, 1.76, -4.49, 2.21, 1.64, 7.49, repro,
2007-02-24,-0.70, 1.03, 0.30, 2.18, 1.60, 7.24, repro,
2007-02-25,0.33, -0.29, 4.04, 2.17, 1.59, 7.17, repro,
2007-02-26,-0.54, 1.13, -6.93, 2.16, 1.58, 7.14, repro,
2007-02-27,-2.37, 1.04, 0.10, 2.15, 1.60, 7.22, repro,
2007-02-28,-1.17, 1.69, 0.36, 2.17, 1.60, 7.21, repro,
2007-03-01,0.04, 1.62, 0.33, 2.24, 1.66, 7.42, repro,
2007-03-02,0.20, 2.05, -2.86, 2.27, 1.69, 7.53, repro,
2007-03-03,-0.50, 2.60, -8.44, 2.19, 1.61, 7.27, repro,
2007-03-04,0.58, 2.45, -6.41, 2.21, 1.62, 7.34, repro,
2007-03-05,-0.03, 1.74, -3.30, 2.21, 1.63, 7.39, repro,
2007-03-06,-0.63, 0.67, -5.39, 2.18, 1.63, 7.28, repro,
2007-03-07,-1.67, 1.75, 3.37, 2.22, 1.63, 7.34, repro,
2007-03-08,-1.21, 1.56, 1.92, 2.23, 1.62, 7.42, repro,
2007-03-09,-0.66, 0.89, 1.80, 2.23, 1.63, 7.45, repro,
2007-03-10,0.30, 2.71, 4.47, 2.27, 1.66, 7.56, repro,
2007-03-11,-5.98, -0.66, -3.52, 2.19, 1.61, 7.29, repro,
2007-03-12,-1.42, 0.77, 1.58, 2.23, 1.63, 7.42, repro,
2007-03-13,0.48, 2.02, -4.25, 2.19, 1.59, 7.27, repro,
2007-03-14,0.38, 1.55, -3.68, 2.17, 1.57, 7.16, repro,
2007-03-15,0.53, 2.50, -9.52, 2.21, 1.62, 7.30, repro,
2007-03-16,-1.46, 1.80, -4.23, 2.19, 1.62, 7.27, repro,
2007-03-17,-0.16, 0.58, -1.24, 2.19, 1.58, 7.13, repro,
2007-03-18,-0.63, 1.99, 7.95, 2.19, 1.58, 7.13, repro,
2007-03-19,-1.94, 1.41, 5.73, 2.19, 1.57, 7.14, repro,
2007-03-20,-0.45, 1.45, -0.28, 2.30, 1.62, 7.28, repro,
2007-03-21,-1.23, 2.36, -3.69, 2.26, 1.61, 7.21, repro,
2007-03-22,-1.20, 2.18, 4.51, 2.18, 1.58, 7.18, repro,